• In Netherlands
  • List of Countries
  • For 7 days
  • Water Temperature
  • Satellite Maps
  • Weather Map
  • Weather Widgets
  • user-avatar
    Login

    Hourly Weather Vratsa

    Today, 24 September, Sunday

    Time Temperature Precipitation Wind Pressure Humidity
    00:00 +10°C° 0 mm 2 mps 711 mmHg 69%
    01:00 +10°C° 0 mm 2 mps 711 mmHg 70%
    02:00 +10°C° 0 mm 2 mps 711 mmHg 68%
    03:00 +10°C° 0 mm 2 mps 711 mmHg 69%
    04:00 +9°C° 0 mm 2 mps 711 mmHg 70%
    05:00 +10°C° 0 mm 1 mps 711 mmHg 70%
    06:00 +11°C° 0 mm 1 mps 711 mmHg 66%
    07:00 +12°C° 0 mm 1 mps 711 mmHg 62%
    08:00 +14°C° 0 mm 1 mps 711 mmHg 56%
    09:00 +16°C° 0 mm 1 mps 712 mmHg 50%
    10:00 +18°C° 0 mm 2 mps 712 mmHg 44%
    11:00 +20°C° 0 mm 2 mps 712 mmHg 38%
    12:00 +21°C° 0 mm 2 mps 712 mmHg 36%
    13:00 +23°C° 0 mm 2 mps 712 mmHg 35%
    14:00 +24°C° 0 mm 2 mps 711 mmHg 33%
    15:00 +23°C° 0 mm 2 mps 711 mmHg 34%
    16:00 +23°C° 0 mm 2 mps 711 mmHg 36%
    17:00 +21°C° 0 mm 2 mps 711 mmHg 37%
    18:00 +19°C° 0 mm 2 mps 711 mmHg 43%
    19:00 +18°C° 0 mm 1 mps 711 mmHg 48%
    20:00 +15°C° 0 mm 1 mps 711 mmHg 53%
    21:00 +15°C° 0 mm 1 mps 711 mmHg 54%
    22:00 +15°C° 0 mm 1 mps 711 mmHg 55%
    23:00 +14°C° 0 mm 1 mps 711 mmHg 56%

    Tomorrow, 25 September, Monday

    Time Temperature Precipitation Wind Pressure Humidity
    00:00 +14°C° 0 mm 1 mps 711 mmHg 57%
    01:00 +14°C° 0 mm 1 mps 711 mmHg 58%
    02:00 +14°C° 0 mm 1 mps 711 mmHg 58%
    03:00 +14°C° 0 mm 1 mps 711 mmHg 60%
    04:00 +13°C° 0 mm 1 mps 711 mmHg 61%
    05:00 +13°C° 0 mm 1 mps 711 mmHg 63%
    06:00 +13°C° 0.1 mm 1 mps 711 mmHg 63%
    07:00 +14°C° 0.1 mm 1 mps 711 mmHg 64%
    08:00 +13°C° 0.1 mm 0 mps 711 mmHg 65%
    09:00 +15°C° 0.1 mm 1 mps 712 mmHg 62%
    10:00 +16°C° 0.1 mm 1 mps 712 mmHg 59%
    11:00 +17°C° 0.1 mm 2 mps 712 mmHg 55%
    12:00 +18°C° 0 mm 2 mps 712 mmHg 53%
    13:00 +19°C° 0 mm 2 mps 712 mmHg 50%
    14:00 +19°C° 0 mm 2 mps 712 mmHg 47%
    15:00 +19°C° 0.1 mm 2 mps 712 mmHg 49%
    16:00 +18°C° 0.1 mm 2 mps 712 mmHg 51%
    17:00 +18°C° 0.1 mm 2 mps 712 mmHg 54%
    18:00 +17°C° 0.1 mm 2 mps 712 mmHg 58%
    19:00 +16°C° 0.1 mm 2 mps 712 mmHg 63%
    20:00 +15°C° 0.1 mm 2 mps 712 mmHg 67%
    21:00 +14°C° 0.1 mm 1 mps 712 mmHg 69%
    22:00 +14°C° 0.1 mm 1 mps 712 mmHg 71%
    23:00 +14°C° 0.1 mm 1 mps 712 mmHg 73%

    Day after tomorrow, 26 September, Tuesday

    Time Temperature Precipitation Wind Pressure Humidity
    00:00 +13°C° 0.1 mm 1 mps 712 mmHg 74%
    01:00 +13°C° 0.1 mm 1 mps 712 mmHg 75%
    02:00 +13°C° 0.1 mm 1 mps 712 mmHg 76%
    03:00 +13°C° 0 mm 1 mps 711 mmHg 77%
    04:00 +12°C° 0 mm 1 mps 711 mmHg 79%
    05:00 +12°C° 0 mm 1 mps 711 mmHg 80%
    06:00 +13°C° 0 mm 1 mps 711 mmHg 78%
    07:00 +13°C° 0 mm 1 mps 712 mmHg 77%
    08:00 +14°C° 0 mm 1 mps 712 mmHg 75%
    09:00 +15°C° 0 mm 1 mps 712 mmHg 70%
    10:00 +16°C° 0 mm 2 mps 712 mmHg 65%
    11:00 +18°C° 0 mm 2 mps 713 mmHg 60%
    12:00 +18°C° 0 mm 3 mps 712 mmHg 59%
    13:00 +19°C° 0 mm 3 mps 712 mmHg 57%
    14:00 +19°C° 0 mm 3 mps 712 mmHg 55%
    15:00 +18°C° 0.5 mm 3 mps 712 mmHg 60%
    16:00 +18°C° 0.5 mm 2 mps 712 mmHg 65%
    17:00 +17°C° 0.5 mm 2 mps 712 mmHg 70%
    18:00 +16°C° 1.4 mm 2 mps 712 mmHg 75%
    19:00 +15°C° 1.4 mm 2 mps 712 mmHg 80%
    20:00 +14°C° 1.4 mm 2 mps 713 mmHg 85%
    21:00 +14°C° 2.3 mm 2 mps 713 mmHg 86%
    22:00 +14°C° 2.3 mm 2 mps 713 mmHg 86%
    23:00 +14°C° 2.3 mm 2 mps 713 mmHg 86%

    27 September, Wednesday

    Time Temperature Precipitation Wind Pressure Humidity
    00:00 +14°C° 1.6 mm 2 mps 713 mmHg 86%
    01:00 +13°C° 1.6 mm 2 mps 713 mmHg 85%
    02:00 +13°C° 1.6 mm 2 mps 714 mmHg 85%
    03:00 +13°C° 0.9 mm 2 mps 714 mmHg 84%
    04:00 +12°C° 0.9 mm 2 mps 714 mmHg 83%
    05:00 +12°C° 0.9 mm 2 mps 714 mmHg 82%
    06:00 +12°C° 0.5 mm 2 mps 714 mmHg 80%
    07:00 +12°C° 0.5 mm 2 mps 714 mmHg 77%
    08:00 +12°C° 0.5 mm 2 mps 714 mmHg 75%
    09:00 +13°C° 0.3 mm 2 mps 715 mmHg 72%
    10:00 +12°C° 0.3 mm 3 mps 715 mmHg 69%
    11:00 +13°C° 0.3 mm 3 mps 715 mmHg 65%
    12:00 +14°C° 0.1 mm 3 mps 715 mmHg 63%
    13:00 +16°C° 0.1 mm 3 mps 715 mmHg 60%
    14:00 +17°C° 0.1 mm 3 mps 715 mmHg 57%
    15:00 +17°C° 0 mm 3 mps 715 mmHg 57%
    16:00 +17°C° 0 mm 3 mps 715 mmHg 57%
    17:00 +17°C° 0 mm 3 mps 715 mmHg 57%
    18:00 +16°C° 0 mm 3 mps 715 mmHg 61%
    19:00 +14°C° 0 mm 2 mps 715 mmHg 65%
    20:00 +13°C° 0 mm 2 mps 716 mmHg 69%
    21:00 +13°C° 0 mm 2 mps 716 mmHg 71%
    22:00 +12°C° 0 mm 2 mps 716 mmHg 72%
    23:00 +12°C° 0 mm 2 mps 716 mmHg 74%

    28 September, Thursday

    Time Temperature Precipitation Wind Pressure Humidity
    00:00 +10°C° 0 mm 2 mps 716 mmHg 76%
    01:00 +10°C° 0 mm 2 mps 716 mmHg 78%
    02:00 +10°C° 0 mm 2 mps 716 mmHg 80%
    03:00 +9°C° 0 mm 2 mps 716 mmHg 82%
    04:00 +9°C° 0 mm 2 mps 716 mmHg 83%
    05:00 +8°C° 0 mm 2 mps 716 mmHg 84%
    06:00 +9°C° 0 mm 2 mps 716 mmHg 80%
    07:00 +9°C° 0 mm 2 mps 716 mmHg 76%
    08:00 +10°C° 0 mm 3 mps 716 mmHg 72%
    09:00 +11°C° 0 mm 3 mps 716 mmHg 65%
    10:00 +12°C° 0 mm 3 mps 717 mmHg 59%
    11:00 +14°C° 0 mm 4 mps 717 mmHg 52%
    12:00 +14°C° 0 mm 4 mps 716 mmHg 50%
    13:00 +15°C° 0 mm 4 mps 716 mmHg 48%
    14:00 +15°C° 0 mm 4 mps 716 mmHg 45%
    15:00 +15°C° 0 mm 4 mps 716 mmHg 46%
    16:00 +15°C° 0 mm 4 mps 715 mmHg 47%
    17:00 +14°C° 0 mm 4 mps 715 mmHg 47%
    18:00 +13°C° 0 mm 3 mps 715 mmHg 51%
    19:00 +11°C° 0 mm 3 mps 716 mmHg 55%
    20:00 +10°C° 0 mm 2 mps 716 mmHg 59%
    21:00 +9°C° 0 mm 2 mps 716 mmHg 61%
    22:00 +9°C° 0 mm 2 mps 716 mmHg 63%
    23:00 +8°C° 0 mm 2 mps 716 mmHg 65%

    29 September, Friday

    Time Temperature Precipitation Wind Pressure Humidity
    00:00 +8°C° 0 mm 2 mps 716 mmHg 68%
    01:00 +7°C° 0 mm 2 mps 716 mmHg 71%
    02:00 +7°C° 0 mm 2 mps 715 mmHg 75%
    03:00 +6°C° 0 mm 2 mps 715 mmHg 77%
    04:00 +5°C° 0 mm 2 mps 715 mmHg 79%
    05:00 +6°C° 0 mm 1 mps 715 mmHg 82%
    06:00 +6°C° 0 mm 2 mps 715 mmHg 76%
    07:00 +6°C° 0 mm 2 mps 716 mmHg 71%
    08:00 +7°C° 0 mm 2 mps 716 mmHg 66%
    09:00 +8°C° 0 mm 3 mps 716 mmHg 60%
    10:00 +10°C° 0 mm 3 mps 716 mmHg 55%
    11:00 +11°C° 0 mm 3 mps 716 mmHg 49%
    12:00 +12°C° 0 mm 4 mps 715 mmHg 49%
    13:00 +12°C° 0 mm 4 mps 715 mmHg 48%
    14:00 +13°C° 0 mm 4 mps 714 mmHg 48%
    15:00 +12°C° 0 mm 4 mps 714 mmHg 48%
    16:00 +12°C° 0 mm 4 mps 714 mmHg 49%
    17:00 +12°C° 0 mm 4 mps 714 mmHg 50%
    18:00 +10°C° 0 mm 3 mps 714 mmHg 56%
    19:00 +9°C° 0 mm 2 mps 714 mmHg 61%
    20:00 +7°C° 0 mm 2 mps 714 mmHg 67%
    21:00 +8°C° 0 mm 1 mps 714 mmHg 68%
    22:00 +8°C° 0 mm 1 mps 714 mmHg 70%
    23:00 +7°C° 0 mm 1 mps 714 mmHg 71%
    Show more